Back to catalog

TIANHUI 2-02A

AliveScienceSSO
NORAD 49071·PAYLOAD·🇨🇳 China

Launched Aug 18, 2021 from Taiyuan Satellite Launch Center

Loading…

Next Passes (next 24 hours)

TLE

FreshSource: Space-Track

Epoch: Sep 14, 2026, 06:12 UTC

1 49071U 21074A   26257.25866817  .00001275  00000-0  68415-4 0  9993
2 49071  97.4859 259.3326 0001842 107.8426 252.3008 15.16753088280776

Track TIANHUI 2-02A in real time with AllMySat

Download on the App Store